Time,TemperatureF,DewpointF,PressureIn,WindDirection,WindDirectionDegrees,WindSpeedMPH,WindSpeedGustMPH,Humidity,HourlyPrecipIn,Conditions,Clouds,dailyrainin,SoftwareType,DateUTC
2015-07-07 00:09:00,76.0,69.0,29.97,WSW,245,1.0,3.0,80,0.00,,,0.00,weatherlink.com 1.10,2015-07-07 04:09:00,
2015-07-07 00:24:00,76.5,70.0,29.96,WSW,242,2.0,4.0,80,0.00,,,0.00,weatherlink.com 1.10,2015-07-07 04:24:00,
2015-07-07 00:39:00,76.5,70.0,29.96,WSW,240,2.0,4.0,80,0.00,,,0.00,weatherlink.com 1.10,2015-07-07 04:39:00,
2015-07-07 00:54:00,76.3,70.0,29.95,WSW,238,0.0,4.0,81,0.00,,,0.00,weatherlink.com 1.10,2015-07-07 04:54:00,
2015-07-07 01:09:00,76.2,70.0,29.95,WSW,257,2.0,3.0,82,0.00,,,0.00,weatherlink.com 1.10,2015-07-07 05:09:00,
2015-07-07 01:24:00,76.0,70.0,29.95,SW,230,0.0,2.0,82,0.00,,,0.00,weatherlink.com 1.10,2015-07-07 05:24:00,
2015-07-07 01:39:00,75.6,70.0,29.95,SW,229,0.0,2.0,83,0.00,,,0.00,weatherlink.com 1.10,2015-07-07 05:39:00,
2015-07-07 01:54:00,74.3,70.0,29.95,SW,229,2.0,2.0,85,0.00,,,0.00,weatherlink.com 1.10,2015-07-07 05:54:00,
2015-07-07 02:09:00,74.3,70.0,29.95,SW,229,0.0,2.0,85,0.00,,,0.00,weatherlink.com 1.10,2015-07-07 06:09:00,
2015-07-07 02:24:00,74.4,70.0,29.94,SW,229,1.0,2.0,85,0.00,,,0.00,weatherlink.com 1.10,2015-07-07 06:24:00,
2015-07-07 02:39:00,74.5,70.0,29.94,SW,229,0.0,2.0,85,0.00,,,0.00,weatherlink.com 1.10,2015-07-07 06:39:00,
2015-07-07 02:54:00,74.2,70.0,29.94,SW,229,0.0,2.0,86,0.00,,,0.00,weatherlink.com 1.10,2015-07-07 06:54:00,
2015-07-07 03:09:00,73.9,70.0,29.94,SW,229,0.0,1.0,87,0.00,,,0.00,weatherlink.com 1.10,2015-07-07 07:09:00,
2015-07-07 03:24:00,74.2,70.0,29.94,SW,230,2.0,3.0,86,0.00,,,0.00,weatherlink.com 1.10,2015-07-07 07:24:00,
2015-07-07 03:39:00,74.5,70.0,29.94,West,260,0.0,4.0,86,0.00,,,0.00,weatherlink.com 1.10,2015-07-07 07:39:00,
2015-07-07 03:54:00,74.9,71.0,29.94,WSW,250,3.0,3.0,86,0.00,,,0.00,weatherlink.com 1.10,2015-07-07 07:54:00,
2015-07-07 04:09:00,75.2,71.0,29.94,SW,231,1.0,3.0,85,0.00,,,0.00,weatherlink.com 1.10,2015-07-07 08:09:00,
2015-07-07 04:24:00,75.3,71.0,29.94,SW,226,1.0,6.0,85,0.00,,,0.00,weatherlink.com 1.10,2015-07-07 08:24:00,
2015-07-07 04:39:00,75.3,71.0,29.94,West,264,1.0,5.0,85,0.00,,,0.00,weatherlink.com 1.10,2015-07-07 08:39:00,
2015-07-07 04:54:00,75.1,70.0,29.93,WSW,252,1.0,2.0,85,0.00,,,0.00,weatherlink.com 1.10,2015-07-07 08:54:00,
2015-07-07 05:09:00,75.2,71.0,29.94,WSW,239,2.0,3.0,86,0.00,,,0.00,weatherlink.com 1.10,2015-07-07 09:09:00,
2015-07-07 05:24:00,75.3,71.0,29.93,SW,216,4.0,5.0,86,0.00,,,0.00,weatherlink.com 1.10,2015-07-07 09:24:00,
2015-07-07 05:39:00,74.9,71.0,29.94,SW,215,2.0,4.0,88,0.00,,,0.00,weatherlink.com 1.10,2015-07-07 09:39:00,
2015-07-07 05:54:00,74.4,71.0,29.93,SW,218,0.0,3.0,89,0.00,,,0.00,weatherlink.com 1.10,2015-07-07 09:54:00,
2015-07-07 06:09:00,74.3,71.0,29.94,WSW,249,1.0,3.0,89,0.00,,,0.00,weatherlink.com 1.10,2015-07-07 10:09:00,
2015-07-07 06:24:00,74.2,71.0,29.94,SW,228,0.0,3.0,90,0.00,,,0.00,weatherlink.com 1.10,2015-07-07 10:24:00,
2015-07-07 06:39:00,74.0,71.0,29.94,WSW,242,1.0,3.0,90,0.00,,,0.00,weatherlink.com 1.10,2015-07-07 10:39:00,
2015-07-07 06:55:00,73.9,71.0,29.94,WSW,237,1.0,2.0,90,0.00,,,0.00,weatherlink.com 1.10,2015-07-07 10:55:00,
2015-07-07 07:09:00,74.2,71.0,29.94,WSW,237,1.0,2.0,90,0.00,,,0.00,weatherlink.com 1.10,2015-07-07 11:09:00,
2015-07-07 07:24:00,74.5,72.0,29.94,WSW,237,1.0,2.0,90,0.00,,,0.00,weatherlink.com 1.10,2015-07-07 11:24:00,
2015-07-07 07:39:00,74.7,72.0,29.94,SW,235,1.0,3.0,90,0.00,,,0.00,weatherlink.com 1.10,2015-07-07 11:39:00,
2015-07-07 07:54:00,75.0,72.0,29.94,SW,231,3.0,4.0,89,0.00,,,0.00,weatherlink.com 1.10,2015-07-07 11:54:00,
2015-07-07 08:09:00,75.3,72.0,29.94,WSW,240,2.0,4.0,89,0.00,,,0.00,weatherlink.com 1.10,2015-07-07 12:09:00,
2015-07-07 08:24:00,75.6,72.0,29.95,SW,232,1.0,7.0,89,0.00,,,0.00,weatherlink.com 1.10,2015-07-07 12:24:00,
2015-07-07 08:39:00,75.7,72.0,29.95,SW,232,1.0,8.0,89,0.00,,,0.00,weatherlink.com 1.10,2015-07-07 12:39:00,
2015-07-07 08:54:00,75.8,72.0,29.94,SW,226,1.0,9.0,88,0.00,,,0.00,weatherlink.com 1.10,2015-07-07 12:54:00,
2015-07-07 09:09:00,76.0,72.0,29.94,SSW,210,4.0,5.0,87,0.00,,,0.00,weatherlink.com 1.10,2015-07-07 13:09:00,
2015-07-07 09:25:00,77.1,72.0,29.93,SW,217,1.0,5.0,85,0.00,,,0.00,weatherlink.com 1.10,2015-07-07 13:25:00,
2015-07-07 09:40:00,77.3,72.0,29.93,SSW,211,5.0,8.0,84,0.00,,,0.00,weatherlink.com 1.10,2015-07-07 13:40:00,
2015-07-07 09:55:00,77.0,72.0,29.94,SW,216,1.0,7.0,84,0.00,,,0.00,weatherlink.com 1.10,2015-07-07 13:55:00,
2015-07-07 10:10:00,77.3,72.0,29.93,SW,218,2.0,9.0,84,0.00,,,0.00,weatherlink.com 1.10,2015-07-07 14:10:00,
2015-07-07 10:25:00,77.8,72.0,29.93,SSW,205,6.0,7.0,83,0.00,,,0.00,weatherlink.com 1.10,2015-07-07 14:25:00,
2015-07-07 10:40:00,78.2,73.0,29.94,SW,234,3.0,7.0,83,0.00,,,0.00,weatherlink.com 1.10,2015-07-07 14:40:00,
2015-07-07 10:55:00,78.0,73.0,29.93,SW,225,4.0,7.0,83,0.00,,,0.00,weatherlink.com 1.10,2015-07-07 14:55:00,
2015-07-07 11:09:00,78.4,73.0,29.93,WSW,247,3.0,7.0,83,0.00,,,0.00,weatherlink.com 1.10,2015-07-07 15:09:00,
2015-07-07 11:24:00,78.7,73.0,29.92,SW,227,6.0,8.0,82,0.00,,,0.00,weatherlink.com 1.10,2015-07-07 15:24:00,
2015-07-07 11:39:00,79.3,73.0,29.92,WSW,244,3.0,8.0,81,0.00,,,0.00,weatherlink.com 1.10,2015-07-07 15:39:00,
2015-07-07 11:54:00,80.0,73.0,29.91,SW,229,4.0,8.0,80,0.00,,,0.00,weatherlink.com 1.10,2015-07-07 15:54:00,
2015-07-07 12:09:00,79.6,73.0,29.92,South,190,6.0,12.0,79,0.00,,,0.00,weatherlink.com 1.10,2015-07-07 16:09:00,
2015-07-07 12:24:00,79.6,73.0,29.90,West,277,2.0,8.0,80,0.00,,,0.00,weatherlink.com 1.10,2015-07-07 16:24:00,
2015-07-07 12:39:00,80.5,73.0,29.90,SSE,160,7.0,7.0,78,0.00,,,0.00,weatherlink.com 1.10,2015-07-07 16:39:00,
2015-07-07 12:54:00,80.6,73.0,29.89,SSW,197,8.0,14.0,77,0.00,,,0.00,weatherlink.com 1.10,2015-07-07 16:54:00,
2015-07-07 13:09:00,80.4,73.0,29.90,SW,216,5.0,14.0,77,0.00,,,0.00,weatherlink.com 1.10,2015-07-07 17:09:00,
2015-07-07 13:24:00,81.1,73.0,29.90,SSW,212,3.0,12.0,76,0.00,,,0.00,weatherlink.com 1.10,2015-07-07 17:24:00,
2015-07-07 13:39:00,80.1,72.0,29.90,SSW,209,4.0,14.0,76,0.00,,,0.00,weatherlink.com 1.10,2015-07-07 17:39:00,
2015-07-07 13:54:00,79.8,72.0,29.91,WSW,238,3.0,12.0,76,0.00,,,0.00,weatherlink.com 1.10,2015-07-07 17:54:00,
2015-07-07 14:09:00,79.4,72.0,29.90,WSW,252,5.0,10.0,77,0.00,,,0.00,weatherlink.com 1.10,2015-07-07 18:09:00,
2015-07-07 14:24:00,79.4,72.0,29.89,SW,236,5.0,10.0,77,0.00,,,0.00,weatherlink.com 1.10,2015-07-07 18:24:00,
2015-07-07 14:39:00,78.9,72.0,29.89,SW,223,10.0,10.0,79,0.00,,,0.00,weatherlink.com 1.10,2015-07-07 18:39:00,
2015-07-07 14:55:00,79.2,72.0,29.89,WSW,253,3.0,14.0,78,0.00,,,0.00,weatherlink.com 1.10,2015-07-07 18:55:00,
2015-07-07 15:09:00,79.8,72.0,29.89,WSW,242,4.0,10.0,76,0.00,,,0.00,weatherlink.com 1.10,2015-07-07 19:09:00,
2015-07-07 15:24:00,78.9,72.0,29.89,SSW,211,3.0,11.0,78,0.00,,,0.00,weatherlink.com 1.10,2015-07-07 19:24:00,
2015-07-07 15:39:00,79.1,72.0,29.89,West,259,3.0,10.0,79,0.00,,,0.00,weatherlink.com 1.10,2015-07-07 19:39:00,
2015-07-07 15:55:00,79.5,73.0,29.89,WSW,244,2.0,5.0,80,0.00,,,0.00,weatherlink.com 1.10,2015-07-07 19:55:00,
2015-07-07 16:09:00,79.1,72.0,29.89,SW,232,2.0,7.0,80,0.00,,,0.00,weatherlink.com 1.10,2015-07-07 20:09:00,
2015-07-07 16:24:00,78.6,72.0,29.89,SW,216,2.0,10.0,80,0.00,,,0.00,weatherlink.com 1.10,2015-07-07 20:24:00,
2015-07-07 16:39:00,78.8,72.0,29.89,SW,235,9.0,15.0,80,0.00,,,0.00,weatherlink.com 1.10,2015-07-07 20:39:00,
2015-07-07 16:54:00,79.1,72.0,29.89,SW,229,13.0,15.0,79,0.00,,,0.00,weatherlink.com 1.10,2015-07-07 20:54:00,
2015-07-07 17:09:00,79.2,73.0,29.90,SW,217,9.0,12.0,80,0.00,,,0.00,weatherlink.com 1.10,2015-07-07 21:09:00,
2015-07-07 17:24:00,78.9,72.0,29.90,South,170,5.0,13.0,80,0.00,,,0.00,weatherlink.com 1.10,2015-07-07 21:24:00,
2015-07-07 17:40:00,78.3,72.0,29.90,SSW,207,7.0,13.0,81,0.00,,,0.00,weatherlink.com 1.10,2015-07-07 21:40:00,
2015-07-07 17:54:00,77.1,72.0,29.90,SW,224,3.0,12.0,84,0.00,,,0.00,weatherlink.com 1.10,2015-07-07 21:54:00,
2015-07-07 18:09:00,76.0,72.0,29.91,West,268,2.0,10.0,86,0.00,,,0.00,weatherlink.com 1.10,2015-07-07 22:09:00,
2015-07-07 18:24:00,75.2,72.0,29.91,West,281,3.0,6.0,88,0.01,,,0.01,weatherlink.com 1.10,2015-07-07 22:24:00,
2015-07-07 18:40:00,74.6,71.0,29.91,WSW,239,2.0,8.0,88,0.01,,,0.01,weatherlink.com 1.10,2015-07-07 22:40:00,
2015-07-07 18:55:00,73.6,71.0,29.91,West,277,3.0,7.0,91,0.03,,,0.03,weatherlink.com 1.10,2015-07-07 22:55:00,
2015-07-07 19:10:00,73.4,71.0,29.91,SW,229,3.0,9.0,91,0.03,,,0.03,weatherlink.com 1.10,2015-07-07 23:10:00,